SV2BBO-2 Thessaloniki GR current weather conditions

sailwx.info

Wind from 231 at 5 knots gusting 6

Air temperature 24.4° C
Dewpoint 7.6° C

Last reported at 2015-May-24 18:47 UTC.
Time now 2015-May-24 19:16 UTC

Location: N 40°38' E 022°57'.
View on Google Maps.

See reports from other nearby stations

  
Tides and Currents Weather Stations Pressure Air Temp Water Temp Dewpoint Dewpoint Depression Visibility Wind Speed Wind Dir Waves Ship Positions
date/time (UTC)wind fromknots sea level pressurealtimeterstation pressurevisibilityair tempwater tempwave heightnotes
2015-May-24 18:47 231 5 gusting 6 24.4
2015-May-24 18:37 229 5 gusting 3 24.4
2015-May-24 18:27 233 2 gusting 5 25.0
2015-May-24 18:17 231 3 gusting 6 25.6
2015-May-24 18:07 181 3 gusting 4 25.6
2015-May-24 17:57 107 4 gusting 6 25.6
2015-May-24 17:47 207 3 gusting 5 25.6
2015-May-24 17:37 197 4 gusting 5 25.6
2015-May-24 17:27 186 3 gusting 4 25.6
2015-May-24 17:17 201 4 gusting 6 26.1
2015-May-24 17:07 226 4 gusting 5 26.1
2015-May-24 16:57 197 1 gusting 6 26.1
2015-May-24 16:47 193 5 gusting 5 26.1
2015-May-24 16:37 218 6 gusting 8 26.7
2015-May-24 16:27 223 6 gusting 7 27.8
2015-May-24 16:17 224 6 gusting 7 27.8
2015-May-24 16:07 172 4 gusting 6 28.3
2015-May-24 15:57 196 4 gusting 7 28.3
2015-May-24 15:47 163 4 gusting 4 28.9
2015-May-24 15:37 166 4 gusting 7 28.9
2015-May-24 15:27 191 6 gusting 8 28.9
2015-May-24 15:17 190 4 gusting 5 28.9
2015-May-24 15:07 199 6 gusting 6 28.3
2015-May-24 14:57 196 6 gusting 7 28.9
2015-May-24 14:47 177 5 gusting 7 29.4
2015-May-24 14:37 207 5 gusting 8 28.9
2015-May-24 14:27 227 6 gusting 9 29.4
2015-May-24 14:17 196 4 gusting 7 29.4
2015-May-24 14:07 219 5 gusting 7 29.4
2015-May-24 13:57 212 3 gusting 5 28.9
2015-May-24 13:47 198 4 gusting 6 28.9
2015-May-24 13:37 207 5 gusting 7 28.9
2015-May-24 13:27 232 5 gusting 4 28.9
2015-May-24 13:17 186 4 gusting 6 28.9
2015-May-24 13:07 207 5 gusting 6 28.3
2015-May-24 12:57 219 4 gusting 7 28.9
2015-May-24 12:47 191 5 gusting 6 28.3
2015-May-24 12:37 217 6 gusting 8 28.9
2015-May-24 12:27 218 5 gusting 4 29.4
2015-May-24 12:17 206 4 gusting 6 28.9
2015-May-24 12:07 236 4 gusting 4 28.9
2015-May-24 11:57 198 6 gusting 7 28.3
2015-May-24 11:47 186 3 gusting 5 28.3
2015-May-24 11:37 212 5 gusting 6 27.8
2015-May-24 11:27 201 6 gusting 6 27.8
2015-May-24 11:17 196 4 gusting 6 28.3
2015-May-24 11:07 225 4 gusting 6 28.3
2015-May-24 10:57 226 4 gusting 5 27.8
2015-May-24 10:47 252 3 gusting 5 27.8
2015-May-24 10:37 222 4 gusting 6 27.8
2015-May-24 10:27 198 4 gusting 5 28.3
2015-May-24 10:17 218 4 gusting 5 27.8
2015-May-24 10:07 243 4 gusting 5 28.3
2015-May-24 09:57 218 4 gusting 5 27.8
2015-May-24 09:47 191 2 gusting 5 27.8
2015-May-24 09:37 200 3 gusting 5 27.8
2015-May-24 09:27 182 2 gusting 4 27.8
2015-May-24 09:17 274 3 gusting 3 27.8
2015-May-24 09:07 181 2 gusting 4 27.8
2015-May-24 08:57 249 3 gusting 4 28.3
2015-May-24 08:47 202 3 gusting 4 28.9
2015-May-24 08:37 274 2 gusting 3 28.3
2015-May-24 08:27 221 2 gusting 4 28.3
2015-May-24 08:17 225 3 gusting 4 28.3
2015-May-24 08:07 201 3 gusting 3 28.3
2015-May-24 07:57 228 1 gusting 2 27.8
2015-May-24 07:47 225 3 gusting 4 27.2
2015-May-24 07:37 232 2 gusting 4 27.2
2015-May-24 07:27 208 4 gusting 4 27.8
2015-May-24 07:17 226 4 gusting 5 27.8
2015-May-24 07:07 223 3 gusting 3 27.8
2015-May-24 06:57 228 4 gusting 4 27.2
2015-May-24 06:47 238 3 gusting 4 27.2
2015-May-24 06:37 159 2 gusting 3 26.7
2015-May-24 06:27 267 0 gusting 3 26.7
2015-May-24 06:17 216 2 gusting 3 26.1
2015-May-24 06:07 216 2 gusting 2 26.1
2015-May-24 05:57 223 2 gusting 3 25.6
2015-May-24 05:47 218 3 gusting 3 25.0
2015-May-24 05:37 214 3 gusting 5 25.0
2015-May-24 05:27 170 2 gusting 4 24.4
2015-May-24 05:17 091 2 gusting 3 24.4
2015-May-24 05:07 092 3 gusting 3 23.9
2015-May-24 04:57 165 23.9
2015-May-24 04:47 088 1 gusting 3 25.0
2015-May-24 04:37 073 2 gusting 3 23.3
2015-May-24 04:27 098 2 gusting 3 22.2
2015-May-24 04:17 130 2 gusting 3 21.7
2015-May-24 04:07 128 21.7
2015-May-24 03:57 032 21.7
2015-May-24 03:47 031 2 gusting 3 21.7
2015-May-24 03:37 031 21.7
2015-May-24 03:27 031 2 gusting 2 21.7
2015-May-24 03:17 030 21.7
2015-May-24 03:07 030 21.7
2015-May-24 02:57 028 21.7
2015-May-24 02:47 028 21.7
2015-May-24 02:37 028 21.7
2015-May-24 02:27 028 2 gusting 3 21.7
2015-May-24 02:17 321 1 gusting 2 22.2
2015-May-24 02:07 321 0 gusting 3 22.2
2015-May-24 01:57 320 22.2
2015-May-24 01:47 295 22.2
2015-May-24 01:37 295 1 22.2
2015-May-24 01:27 292 22.2
2015-May-24 01:17 292 22.8
2015-May-24 01:07 292 22.8
2015-May-24 00:57 292 22.8
2015-May-24 00:47 301 0 gusting 3 22.8
2015-May-24 00:37 303 2 gusting 3 22.8
2015-May-24 00:27 301 2 gusting 2 22.8
2015-May-24 00:17 298 22.8
2015-May-24 00:07 311 0 gusting 3 22.8
2015-May-23 23:57 027 22.8
2015-May-23 23:47 031 2 gusting 3 23.3
2015-May-23 23:37 229 23.3
2015-May-23 23:27 229 2 gusting 3 23.3
2015-May-23 23:17 218 3 gusting 3 23.3
2015-May-23 23:07 226 2 gusting 4 23.3
2015-May-23 22:57 235 3 gusting 4 23.9
2015-May-23 22:47 282 3 gusting 5 23.9
2015-May-23 22:37 295 23.9
2015-May-23 22:27 305 2 gusting 2 23.9
2015-May-23 22:17 303 0 gusting 3 23.9
2015-May-23 22:07 330 1 gusting 2 23.9
2015-May-23 21:57 286 3 gusting 2 23.9
2015-May-23 21:47 225 23.9
2015-May-23 21:37 224 1 23.9
2015-May-23 21:27 224 1 23.9
2015-May-23 21:17 224 23.9
2015-May-23 21:07 224 1 gusting 2 23.9
2015-May-23 20:57 223 0 gusting 3 24.4
2015-May-23 20:47 199 2 gusting 4 24.4
2015-May-23 20:37 078 24.4
2015-May-23 20:27 078 24.4
2015-May-23 20:17 078 24.4
2015-May-23 20:07 078 0 gusting 2 24.4
2015-May-23 19:57 078 24.4
2015-May-23 19:47 078 2 gusting 2 24.4
2015-May-23 19:37 078 24.4
2015-May-23 19:27 078 24.4
2015-May-23 19:17 086 1 gusting 2 25.0
2015-May-23 18:57 152 0 gusting 2 25.0
2015-May-23 18:47 156 3 gusting 3 25.0
2015-May-23 18:37 148 2 gusting 3 25.0
2015-May-23 18:27 217 3 gusting 4 25.0
2015-May-23 18:17 189 2 gusting 5 25.0
2015-May-23 18:07 234 3 gusting 4 25.0
2015-May-23 17:57 220 3 gusting 5 25.0
2015-May-23 17:47 214 3 gusting 4 25.0
2015-May-23 17:37 203 2 gusting 3 25.0
2015-May-23 17:27 231 4 gusting 5 25.0
2015-May-23 17:17 236 2 gusting 3 25.0
2015-May-23 17:07 221 3 gusting 4 25.6
2015-May-23 16:57 231 3 gusting 4 25.6
2015-May-23 16:47 219 3 gusting 3 26.1
2015-May-23 16:37 225 3 gusting 3 25.6
2015-May-23 16:27 296 2 gusting 2 26.1
2015-May-23 16:17 254 3 gusting 4 26.1
2015-May-23 16:07 218 3 gusting 4 26.1
2015-May-23 15:57 267 2 gusting 5 26.1
2015-May-23 15:47 222 3 gusting 4 26.7
2015-May-23 15:37 216 2 gusting 4 26.1
2015-May-23 15:27 223 4 gusting 5 26.1
2015-May-23 15:17 259 3 gusting 5 26.7
2015-May-23 15:07 221 3 gusting 5 26.7
2015-May-23 14:57 190 3 gusting 4 27.2
2015-May-23 14:47 222 4 gusting 6 27.2
2015-May-23 14:37 249 4 gusting 6 27.2
2015-May-23 14:27 229 4 gusting 6 27.2
2015-May-23 14:17 242 3 gusting 5 27.2
2015-May-23 14:07 232 5 gusting 5 27.8
2015-May-23 13:57 261 4 gusting 5 28.3
2015-May-23 13:47 225 4 gusting 6 28.3
2015-May-23 13:37 214 3 gusting 4 28.3
2015-May-23 13:27 225 4 gusting 4 28.3
2015-May-23 13:17 255 4 gusting 4 28.3
2015-May-23 13:07 219 6 gusting 7 27.8
2015-May-23 12:57 259 2 gusting 3 27.8
2015-May-23 12:47 233 3 gusting 4 27.8
2015-May-23 12:37 235 3 gusting 5 27.8
2015-May-23 12:27 214 3 gusting 6 27.8
2015-May-23 12:17 252 4 gusting 6 27.8
2015-May-23 12:07 213 5 gusting 5 27.8
2015-May-23 11:57 237 3 gusting 5 27.8
2015-May-23 11:47 230 4 gusting 6 27.8
2015-May-23 11:37 226 5 gusting 6 27.8
2015-May-23 11:27 255 3 gusting 5 27.8
2015-May-23 11:17 246 5 gusting 6 27.8
2015-May-23 11:07 222 4 gusting 6 27.2
2015-May-23 10:57 210 3 gusting 3 27.2
2015-May-23 10:47 185 3 gusting 4 27.8
2015-May-23 10:37 205 4 gusting 5 27.2
2015-May-23 10:27 231 3 gusting 5 27.8
2015-May-23 10:17 224 5 gusting 5 27.8
2015-May-23 10:07 243 3 gusting 4 27.8
2015-May-23 09:57 212 3 gusting 4 27.8
2015-May-23 09:47 232 4 gusting 5 27.8
2015-May-23 09:37 209 4 gusting 5 27.8
2015-May-23 09:27 212 4 gusting 4 27.8
2015-May-23 09:17 260 3 gusting 5 27.8
2015-May-23 09:07 237 3 gusting 5 28.3
2015-May-23 08:57 225 3 gusting 3 27.8
2015-May-23 08:47 215 4 gusting 5 28.3
2015-May-23 08:37 202 3 gusting 5 28.9
2015-May-23 08:26 229 3 gusting 4 28.3
2015-May-23 08:16 269 2 gusting 3 27.8
2015-May-23 08:06 207 3 gusting 4 27.8
2015-May-23 07:57 275 2 gusting 4 28.3
2015-May-23 07:46 219 3 gusting 3 28.3
2015-May-23 07:36 200 3 gusting 4 28.3
2015-May-23 07:26 308 2 gusting 3 28.3
2015-May-23 07:16 245 3 gusting 5 27.8
2015-May-23 07:06 233 3 gusting 4 27.8
2015-May-23 06:56 219 2 gusting 3 27.8
2015-May-23 06:46 176 2 gusting 3 27.2
2015-May-23 06:36 244 2 gusting 2 26.7
2015-May-23 06:26 194 3 gusting 3 25.6
2015-May-23 06:16 225 2 gusting 3 26.1
2015-May-23 06:06 224 2 gusting 3 25.6
2015-May-23 05:56 225 2 gusting 3 25.6
2015-May-23 05:46 224 2 gusting 3 25.0
2015-May-23 05:36 244 3 gusting 4 24.4
2015-May-23 05:26 219 2 gusting 3 24.4
2015-May-23 05:16 204 3 gusting 3 23.9
2015-May-23 05:06 213 2 gusting 3 23.9
2015-May-23 04:56 160 2 gusting 3 24.4
2015-May-23 04:46 304 25.6
2015-May-23 04:36 304 1 22.8
2015-May-23 04:26 304 22.2
2015-May-23 04:16 035 21.7
2015-May-23 04:06 035 21.7
2015-May-23 03:56 035 21.7
2015-May-23 03:46 035 21.7
2015-May-23 03:36 035 0 gusting 2 21.7
2015-May-23 03:26 034 21.7
2015-May-23 03:16 035 21.7
2015-May-23 03:06 018 21.7
2015-May-23 02:56 009 1 gusting 2 21.7
2015-May-23 02:46 019 0 gusting 3 21.7
2015-May-23 02:36 046 21.7
2015-May-23 02:26 046 1 21.7
2015-May-23 02:16 046 21.7
2015-May-23 02:06 047 21.7
2015-May-23 01:56 047 21.7
2015-May-23 01:46 047 21.7
2015-May-23 01:38 047 2 gusting 3 21.7
2015-May-23 01:28 050 3 gusting 3 21.7
2015-May-23 01:18 358 22.2
2015-May-23 01:08 357 22.2
2015-May-23 00:58 353 2 gusting 3 22.2
2015-May-23 00:48 353 22.8
2015-May-23 00:38 353 2 gusting 3 22.8
2015-May-23 00:28 340 22.8
2015-May-23 00:18 340 22.8
2015-May-23 00:08 019 22.8
2015-May-22 23:58 019 23.3
2015-May-22 23:48 019 23.3
2015-May-22 23:38 027 2 gusting 2 23.3
2015-May-22 23:28 018 2 gusting 4 23.3
2015-May-22 23:18 350 3 gusting 3 23.3
2015-May-22 23:08 312 23.3
2015-May-22 22:58 303 0 gusting 2 23.3
2015-May-22 22:48 302 23.3
2015-May-22 22:38 302 2 gusting 3 23.3
2015-May-22 22:28 357 23.9
2015-May-22 22:18 001 1 23.9
2015-May-22 22:08 002 1 gusting 2 23.3
2015-May-22 21:58 002 23.3
2015-May-22 21:48 003 1 gusting 2 23.3
2015-May-22 21:38 234 23.9
2015-May-22 21:28 301 1 23.9
2015-May-22 21:18 290 2 gusting 2 23.9
2015-May-22 21:08 265 1 gusting 2 23.9
2015-May-22 20:58 262 2 gusting 5 23.9
2015-May-22 20:48 295 23.9
2015-May-22 20:38 295 1 gusting 2 23.9
2015-May-22 20:28 252 3 gusting 4 23.9
2015-May-22 20:18 246 23.9
2015-May-22 20:08 223 3 gusting 3 24.4
2015-May-22 19:58 143 3 gusting 6 23.9
2015-May-22 19:48 058 6 gusting 6 23.3
2015-May-22 19:38 072 2 gusting 3 24.4
2015-May-22 19:28 237 1 gusting 2 24.4
2015-May-22 19:18 224 3 gusting 3 24.4
2015-May-22 19:08 226 5 gusting 5 25.0